Weather History for Puerto Plata, Dominican Republic

Change the Weather History Date:

Monday, January 7, 2013

  Actual Average Record
Temperature  
Mean Temperature 76 °F -  
Max Temperature 83 °F 80 °F 87 °F (2009)
Min Temperature 68 °F 67 °F 66 °F (2006)
Cooling Degree Days 10    
Growing Degree Days 26 (Base 50)    
Moisture  
Dew Point 72 °F    
Average Humidity 86    
Maximum Humidity 100    
Minimum Humidity 70    
Precipitation  
Precipitation 0.00 in - - ()
Sea Level Pressure  
Sea Level Pressure 30.06 in    
Wind  
Wind Speed 4 mph ()    
Max Wind Speed 21 mph    
Max Gust Speed -    
Visibility 7.3 miles    
Events Rain    
Averages and records for this station are not official NWS values.
T = Trace of Precipitation, MM = Missing Value Source: Averaged Metar Reports

Daily Weather History Graph

Daily Weather History Graph

Search for Another Location

Airport:

Trip Planner

Search our weather history database for the weather conditions in past years. The results will help you decide how hot, cold, wet, or windy it might be!

Date:

Astronomy

Jan. 07, 2013 Rise Set
Actual Time 7:18 AM AST 6:18 PM AST
Civil Twilight 6:54 AM AST 6:42 PM AST
Nautical Twilight 6:27 AM AST 7:09 PM AST
Astronomical Twilight 6:00 AM AST 7:36 PM AST
Moon 2:48 AM AST (1/7) 2:20 PM AST (1/7)
Length of Visible Light 11h 47m
Length of Day
11h 00m
Waning Crescent, 23% of the Moon is Illuminated
Jan 7
Waning Crescent
Jan 11
New
Jan 18
First Quarter
Jan 27
Full
Feb 3
Last Quarter

Hourly Weather History & Observations

Time (AST) Temp. Heat Index Dew Point Humidity Pressure Visibility Wind Dir Wind Speed Gust Speed Precip Events Conditions
2:00 AM 72 °F - 69 °F 87% 30.09 in 10 mi Calm Calm - -   Scattered Clouds
2:00 AM 71.6 °F - 69.8 °F 94% 30.06 in 6.2 mi Calm Calm - N/A   Partly Cloudy
5:00 AM 71 °F - 69 °F 93% 30.06 in 10 mi Calm Calm - -   Scattered Clouds
5:00 AM 69.8 °F - 69.8 °F 100% 30.04 in 6.2 mi Calm Calm - N/A   Partly Cloudy
8:00 AM 71 °F - 69 °F 93% 30.09 in 10 mi Calm Calm - -   Scattered Clouds
8:00 AM 69.8 °F - 69.8 °F 100% 30.06 in 6.2 mi Calm Calm - N/A   Partly Cloudy
9:00 AM 75.2 °F - 71.6 °F 89% 30.06 in 6.2 mi Calm Calm - N/A   Partly Cloudy
10:00 AM 80.6 °F 84.6 °F 71.6 °F 74% 30.06 in 6.2 mi SSE 5.8 mph - N/A   Partly Cloudy
11:00 AM 81 °F - 74 °F 72% 30.11 in 10 mi East 11.2 mph - -   Partly Cloudy
11:00 AM 80.6 °F 85.4 °F 73.4 °F 79% 30.09 in 6.2 mi East 11.5 mph - N/A   Scattered Clouds
12:00 PM 82.4 °F 89.5 °F 75.2 °F 79% 30.09 in 5.0 mi ESE 9.2 mph - N/A Rain Light Rain
1:00 PM 84.2 °F 90.9 °F 73.4 °F 70% 30.06 in 6.2 mi East 20.7 mph - N/A   Scattered Clouds
2:00 PM 79 °F - 74 °F 79% 30.05 in 10 mi ESE 11.2 mph - -   Partly Cloudy
2:00 PM 78.8 °F - 73.4 °F 83% 30.04 in 6.2 mi ESE 11.5 mph - N/A   Overcast
3:00 PM 77.0 °F - 73.4 °F 89% 30.04 in 6.2 mi ESE 5.8 mph - N/A   Overcast
4:00 PM 78.8 °F - 71.6 °F 78% 30.01 in 6.2 mi ESE 13.8 mph - N/A   Mostly Cloudy
5:00 PM 77 °F - 73 °F 84% 30.03 in 10 mi ESE 4.5 mph - -   Partly Cloudy
5:00 PM 77.0 °F - 73.4 °F 89% 30.01 in 6.2 mi ESE 5.8 mph - N/A   Mostly Cloudy
6:00 PM 77.0 °F - 73.4 °F 89% 30.04 in 6.2 mi ESE 5.8 mph - N/A   Mostly Cloudy
7:00 PM 75.2 °F - 71.6 °F 89% 30.04 in 6.2 mi ESE 9.2 mph - N/A   Mostly Cloudy
8:00 PM 75 °F - 73 °F 90% 30.05 in 10 mi Calm Calm - -   Partly Cloudy
8:00 PM 75.2 °F - 73.4 °F 94% 30.04 in 6.2 mi Calm Calm - N/A   Mostly Cloudy
11:00 PM 75.2 °F - 71.6 °F 89% 30.09 in 6.2 mi ESE 9.2 mph - N/A   Scattered Clouds